"Pseudo-MPEC" for P10TXN4

Created 2019 Nov 9 6:07:18 UT using Find_Orb

Click here for an explanation of pseudo-MPECs

 
 Astrometry: 
     P10TXN4  C2019 10 18Ji('db`D;Ec:n2\7rLpSj5U3+/8fV/^CtG](r%w@k3Xc_44lX#GkF51
     P10TXN4  C2019 10 18.0]Ofy^Kv2L3*hG9w8L/VeCDWVGY!/i_^V8w[i/a:)pP1GB7VxTBF51
     P10TXN4  C2019 10 1840iG1S6J7Fc4',xB.lK'!8dxP@v,tst^Apo2AstrometrytaX]u:F51
     P10TXN4  C2019 10 18iM\R?.Y\cqa!@8bo16SMX#wDx^53Yay1ZaDpJ;pfqk$3`iImp[KmF51
     P10TXN4  C2019 10 19%#Q\l?xKQ6:lZ1qP']!r;42*7Zs+redacted;HxbyZT3ZxJ91_J\F51
     P10TXN4  C2019 10 19i+?clickjX4XDo$rhherec@AK@U8B:kad*LI..8m'\%;nJ3dN+,8F51
     P10TXN4  C2019 11 02L'=F]w8Y7)tg%O.rwi.^#LqAU#'G)/)FAYS%T/FTiv=;s,IOEVGeF51
     P10TXN4  C2019 11 02sO2V8*_8F[qT`Kc,,\wGU)q_(w;EyZr(lO@v42wo)Q/Un5!x2H.oF51
     P10TXN4  C2019 11 02?GxqwpvoxBxrrg*o63FFB;1pnwG8Iy/?vY;E1]D)VegK!TL!wA=bF51
     P10TXN4  C2019 11 03.22462801 11 53.77 +37 08 03.8    ~B367 22.3 GVNEOCPH01
     P10TXN4  C2019 11 03.22657201 11 53.48 +37 08 04.2    ~B367 22.5 GVNEOCPH01
     P10TXN4  C2019 11 03.23623401 11 52.05 +37 08 06.6    ~B367 22.7 GVNEOCPH01
     P10TXN4  C2019 11 03.24565001 11 50.65 +37 08 09.0    ~B367 22.4 GVNEOCPH01
     P10TXN4  C2019 11 0372:/haGl`016iM5TdY7@x$lYrU09MLP9f_'MaforMgq9W;@mI*aKF51
     P10TXN4  C2019 11 03%eqYDi4.\a[2TGK6Ofcp8VN-vAV'G=,)#_'FN6(iqnDrsZG`wRTlF51
     P10TXN4  C2019 11 03_Pg;14Yq;NTCt(3VL*Jp#xP$8MBj[hO2/DwD#o9sCGqr**NViSLFF51
     P10TXN4  C2019 11 05QVJi]G3?ib+y`\wQj7O7.!A9Ow\\#(33RVqSCjC_OBF1?d=/!FFdF51
     P10TXN4  C2019 11 05GBWPs93wAdMexplanation1['T%J:Tl`@eJ]t%]ti*pFZj9GAZH+F51
     P10TXN4  C2019 11 05bYAi3mM/93O$7fR=I`-w-AAi5k!w$B@7w3?,L,5*D!\;$!19b,4cF51

Station data:
(F51) Pan-STARRS 1, Haleakala  (N20.707235 W156.255910)  US/Hawaii.
   Observers N. Primak, A. Schultz, S. Watters, J. Thiel, T. Goggia. Measurer
   PS1 Science Consortium. 1.8-m Ritchey-Chrétien + CCD.
(H01) Magdalena Ridge Observatory, Socorro  (N33.984833 W107.189333)  US/New
   Mexico.  Observers W. H. Ryan, E. V. Ryan. Measurer W. H. Ryan. 2.4-m
   f/8.9 reflector + CCD.

Orbital elements:  P10TXN4
   Perihelion 2020 May 29.650487 +/- 0.184 TT = 15:36:42 (JD 2458999.150487)
Epoch 2019 Nov  5.0 TT = JDT 2458792.5   Earth MOID: 0.3300   AutoNEOCP
M 278.10788526 +/- 0.050            (J2000 ecliptic)
n   0.39628319 +/- 0.000236         Peri.  146.25946 +/- 0.012
a   1.83568832 +/- 0.00073          Node     9.05927 +/- 0.029
e   0.2984290 +/- 0.000262          Incl.   28.01533 +/- 0.037
P   2.49/908.42d           H 20.3   G  0.15   U  7.2  
q 1.28786558 +/- 0.000519    Q 2.38351107 +/- 0.00124
From 19 observations 2019 Oct. 18-Nov. 5; mean residual 0".18
Residuals in arcseconds: 
191018 F51  .19-  .29+    191102 F51  .03-  .09+    191103 F51  .12+  .11-    
191018 F51  .05+  .07+    191102 F51  .19-  .15-    191103 F51  .07-  .07+    
191018 F51  .02-  .08-    191103 H01  .05+  .02+    191105 F51  .12+  .18-    
191018 F51  .64-  .04+    191103 H01  .02+  .06-    191105 F51  .00   .28+    
191019 F51  .58+  .15-    191103 H01  .00   .02-    191105 F51  .10+  .06-    
191019 F51  .26+  .15-    191103 H01  .10-  .10+    
191102 F51  .07-  .08-    191103 F51  .10-  .08+    

Ephemerides (geocentric):
Date (UTC) HH   RA              Dec         delta   r     elong  mag " sig PA
---- -- -- --  -------------   -----------  ------ ------ -----  --- ---- ---
2019 11 09 06  00 57 53.839   +37 24 15.86  0.9957 1.9041 146.9 22.5 .732 179
2019 11 09 07  00 57 48.274   +37 24 19.28  0.9957 1.9040 146.9 22.5 .739 179
2019 11 09 08  00 57 42.712   +37 24 22.67  0.9958 1.9038 146.8 22.5 .746 179
2019 11 09 09  00 57 37.154   +37 24 26.01  0.9958 1.9037 146.8 22.5 .752 178
2019 11 09 10  00 57 31.601   +37 24 29.31  0.9958 1.9035 146.8 22.5 .759 178
2019 11 09 11  00 57 26.051   +37 24 32.57  0.9959 1.9034 146.7 22.5 .766 178
2019 11 09 12  00 57 20.506   +37 24 35.78  0.9959 1.9032 146.7 22.5 .773 178
2019 11 09 13  00 57 14.964   +37 24 38.95  0.9960 1.9031 146.7 22.5 .780 178
2019 11 09 14  00 57 09.427   +37 24 42.09  0.9960 1.9029 146.6 22.5 .787 178
2019 11 09 15  00 57 03.893   +37 24 45.18  0.9961 1.9027 146.6 22.5 .794 178
2019 11 09 16  00 56 58.364   +37 24 48.23  0.9961 1.9026 146.6 22.5 .801 178
2019 11 09 17  00 56 52.839   +37 24 51.23  0.9961 1.9024 146.5 22.5 .808 178
2019 11 09 18  00 56 47.318   +37 24 54.20  0.9962 1.9023 146.5 22.5 .815 177
2019 11 09 19  00 56 41.801   +37 24 57.12  0.9962 1.9021 146.4 22.5 .822 177
2019 11 09 20  00 56 36.289   +37 25 00.01  0.9963 1.9020 146.4 22.5 .829 177
2019 11 09 21  00 56 30.780   +37 25 02.85  0.9963 1.9018 146.4 22.5 .836 177
2019 11 09 22  00 56 25.276   +37 25 05.65  0.9964 1.9017 146.3 22.5 .843 177
2019 11 09 23  00 56 19.775   +37 25 08.41  0.9964 1.9015 146.3 22.5 .850 177
2019 11 10 00  00 56 14.279   +37 25 11.13  0.9965 1.9014 146.3 22.5 .857 177
2019 11 10 01  00 56 08.787   +37 25 13.80  0.9965 1.9012 146.2 22.5 .864 177
2019 11 10 02  00 56 03.300   +37 25 16.44  0.9966 1.9011 146.2 22.5 .871 177
2019 11 10 03  00 55 57.816   +37 25 19.03  0.9966 1.9009 146.1 22.5 .879 177
2019 11 10 04  00 55 52.337   +37 25 21.59  0.9967 1.9008 146.1 22.5 .886 176
2019 11 10 05  00 55 46.862   +37 25 24.10  0.9967 1.9006 146.1 22.5 .893 176
2019 11 10 06  00 55 41.392   +37 25 26.58  0.9968 1.9005 146.0 22.5 .900 176
2019 11 10 07  00 55 35.925   +37 25 29.01  0.9968 1.9003 146.0 22.5 .908 176
2019 11 10 08  00 55 30.463   +37 25 31.40  0.9969 1.9002 146.0 22.5 .915 176
2019 11 10 09  00 55 25.006   +37 25 33.76  0.9969 1.9000 145.9 22.5 .922 176
2019 11 10 10  00 55 19.552   +37 25 36.07  0.9970 1.8999 145.9 22.5 .929 176
2019 11 10 11  00 55 14.103   +37 25 38.34  0.9970 1.8997 145.8 22.5 .937 176
2019 11 10 12  00 55 08.658   +37 25 40.57  0.9971 1.8996 145.8 22.6 .944 176
2019 11 10 13  00 55 03.218   +37 25 42.76  0.9971 1.8994 145.8 22.6 .952 176
2019 11 10 14  00 54 57.782   +37 25 44.91  0.9972 1.8993 145.7 22.6 .959 175
2019 11 10 15  00 54 52.350   +37 25 47.03  0.9972 1.8991 145.7 22.6 .966 175
2019 11 10 16  00 54 46.923   +37 25 49.10  0.9973 1.8990 145.7 22.6 .974 175
2019 11 10 17  00 54 41.500   +37 25 51.13  0.9973 1.8988 145.6 22.6 .981 175
2019 11 10 18  00 54 36.081   +37 25 53.12  0.9974 1.8987 145.6 22.6 .989 175
2019 11 10 19  00 54 30.667   +37 25 55.08  0.9974 1.8985 145.5 22.6 1.00 175
2019 11 10 20  00 54 25.258   +37 25 56.99  0.9975 1.8984 145.5 22.6 1.00 175
2019 11 10 21  00 54 19.852   +37 25 58.86  0.9976 1.8982 145.5 22.6 1.01 175
2019 11 10 22  00 54 14.452   +37 26 00.70  0.9976 1.8981 145.4 22.6 1.02 175
2019 11 10 23  00 54 09.055   +37 26 02.49  0.9977 1.8979 145.4 22.6 1.03 175
2019 11 11 00  00 54 03.663   +37 26 04.25  0.9977 1.8978 145.4 22.6 1.03 174
2019 11 11 01  00 53 58.276   +37 26 05.97  0.9978 1.8976 145.3 22.6 1.04 174
2019 11 11 02  00 53 52.893   +37 26 07.64  0.9978 1.8974 145.3 22.6 1.05 174
2019 11 11 03  00 53 47.515   +37 26 09.28  0.9979 1.8973 145.2 22.6 1.06 174
2019 11 11 04  00 53 42.141   +37 26 10.88  0.9980 1.8971 145.2 22.6 1.06 174
2019 11 11 05  00 53 36.772   +37 26 12.44  0.9980 1.8970 145.2 22.6 1.07 174